KUIPER-00029 (63742 NORAD) Tracking and Keplerian Element Data

This shows tracking and keplerian element data for the satellite.

Feedback or suggestion? Click here.




ElementValue
Catalog63742
NameKUIPER-00029
Epoch Orbit469
Epoch Day354.25003472
Epoch Year2025
RAAN82.6885
Inclination51.9014
Eccentricity0.0008495
Argument of Perigee215.6523
Mean Anonmoly258.2953
Mean Motion14.76679546
Decay Rate0.00016175
L11 63742U 25088U 25354.25003472 .00016175 00000+0 23152-2 0 9991
L22 63742 51.9014 82.6885 0008495 215.6523 258.2953 14.76679546 4699



Live tracking and technical data element details for KUIPER-00029 (NORAD 63742). KUIPER-00029 can be tracked NOW for your location showing map with azimuth and elevation plus other details from your city location.







IsCatalogInMostPopularTable: catalog: 63742, numindb: 4
Update: records affected: 1



GetName: 63742 KUIPER-00029

Hit Count: updated at: Wed, 15 Apr 2026 01:16:00 GMT